Location: Nelson
(38.9945°N, 93.0321°W)
Time: 18:38:47
(UTC+00:00)

ACS3 Solar Sail - Pass Details

Date: 25 June 2024
Orbit: 992 x 1023 km, 97.4° (Epoch: 14 July)

Event Time Altitude Azimuth Distance (km) Brightness Sun altitude
Exits shadow 05:26:37 - 243° (WSW) 2,884 7.1 -26.6°
Reaches altitude 10° 05:27:23 10° 250° (WSW) 2,762 7.1 -26.6°
Maximum altitude 05:29:51 12° 273° (W) 2,584 7.2 -26.7°
Drops below altitude 10° 05:32:20 10° 297° (WNW) 2,763 7.6 -26.8°
Sets 05:36:39 0° 326° (NW) 3,716 8.9 -27.0°
